Date String (YYYY-MM-DD hh:mm:ss) UTC,Instrument flags,Ambient pressure (hPa),Sample flow (lpm),Bypass flow (lpm),Sample temperature (°C),Ambient temperature (°C),ASC tube jacket temperature (°C),LED temperature (°C),Box temperature (°C),Sample RH (%),Mass concentration (μg/m³),Mass concentration (μg/m³)
DateTimeUTC,F1_M11,P_M11,Q1_M11,Q2_M11,T1_M11,T2_M11,T3_M11,T4_M11,T5_M11,U1_M11,X0_M11,X2_M11
2021-08-15 04:00:00,,0830.5,5.00,0.00,29.3,28.4,00.0,38.3,31.2,16.8,0010.39,0005.32
2021-08-15 04:01:00,,0830.5,5.01,0.00,29.4,28.5,00.0,38.3,31.3,16.8,0010.14,0005.30
2021-08-15 04:02:00,,0830.5,4.99,0.00,29.4,28.6,00.0,38.3,31.3,16.9,0009.91,0005.29
2021-08-15 04:03:00,,0830.5,5.00,0.00,29.5,28.6,00.0,38.3,31.4,16.9,0010.34,0005.27
2021-08-15 04:04:00,,0830.5,4.99,0.00,29.4,27.3,00.0,38.3,31.0,16.8,0010.40,0005.29
2021-08-15 04:05:00,,0830.4,5.00,0.00,29.3,25.6,00.0,38.3,30.5,16.7,0010.42,0005.31
2021-08-15 04:06:00,,0830.4,5.01,0.00,29.1,25.6,00.0,38.3,30.4,16.6,0009.71,0005.31
2021-08-15 04:07:00,,0830.4,5.00,0.00,29.1,26.0,00.0,38.2,30.6,16.7,0008.74,0005.34
2021-08-15 04:08:00,,0830.4,5.01,0.00,29.0,26.5,00.0,38.2,30.7,16.9,0008.82,0005.35
2021-08-15 04:09:00,,0830.4,5.00,0.00,29.0,26.9,00.0,38.2,30.8,16.9,0008.87,0005.37
2021-08-15 04:10:00,,0830.5,5.02,0.00,29.1,27.3,00.0,38.2,30.9,16.9,0009.00,0005.37
2021-08-15 04:11:00,,0830.4,4.99,0.00,29.1,27.6,00.0,38.2,31.0,16.7,0009.14,0005.36
2021-08-15 04:12:00,,0830.4,4.99,0.00,29.2,27.8,00.0,38.2,31.0,16.5,0009.24,0005.35
2021-08-15 04:13:00,,0830.4,4.99,0.00,29.2,28.0,00.0,38.2,31.1,16.5,0009.35,0005.37
2021-08-15 04:14:00,,0830.6,5.02,0.00,29.3,28.2,00.0,38.2,31.2,16.4,0008.83,0005.38
2021-08-15 04:15:00,,0830.4,4.99,0.00,29.3,28.4,00.0,38.2,31.2,16.2,0008.77,0005.35
2021-08-15 04:16:00,,0830.4,4.99,0.00,29.3,28.5,00.0,38.3,31.3,16.2,0008.73,0005.33
2021-08-15 04:17:00,,0830.4,5.00,0.00,29.4,28.6,00.0,38.3,31.4,16.1,0008.70,0005.31
2021-08-15 04:18:00,,0830.4,5.00,0.00,29.5,28.7,00.0,38.3,31.4,16.1,0008.79,0005.33
2021-08-15 04:19:00,,0830.4,5.00,0.00,29.5,28.7,00.0,38.3,31.4,16.1,0008.66,0005.31
2021-08-15 04:20:00,,0830.4,5.00,0.00,29.5,27.4,00.0,38.4,31.0,16.0,0008.58,0005.31
2021-08-15 04:21:00,,0830.4,5.00,0.00,29.3,25.7,00.0,38.3,30.6,16.2,0008.44,0005.32
2021-08-15 04:22:00,,0830.4,5.00,0.00,29.2,25.7,00.0,38.3,30.6,16.4,0008.31,0005.31
2021-08-15 04:23:00,,0830.4,5.00,0.00,29.1,26.1,00.0,38.3,30.7,16.6,0008.22,0005.32
2021-08-15 04:24:00,,0830.4,4.99,0.00,29.1,26.6,00.0,38.2,30.7,16.7,0008.15,0005.31
2021-08-15 04:25:00,,0830.5,5.00,0.00,29.1,27.0,00.0,38.2,30.8,16.7,0008.20,0005.32
2021-08-15 04:26:00,,0830.5,5.01,0.00,29.1,27.3,00.0,38.2,30.9,16.7,0008.31,0005.33
2021-08-15 04:27:00,,0830.5,4.99,0.00,29.2,27.6,00.0,38.2,31.0,16.7,0008.39,0005.36
2021-08-15 04:28:00,,0830.6,5.00,0.00,29.2,27.9,00.0,38.2,31.1,16.7,0008.36,0005.38
2021-08-15 04:29:00,,0830.5,5.01,0.00,29.2,28.1,00.0,38.2,31.1,16.6,0008.29,0005.37
2021-08-15 04:30:00,,0830.6,4.99,0.00,29.3,28.2,00.0,38.2,31.2,16.6,0008.32,0005.37
2021-08-15 04:31:00,,0830.6,4.99,0.00,29.3,28.4,00.0,38.3,31.3,16.5,0008.47,0005.35
2021-08-15 04:32:00,,0830.6,5.00,0.00,29.4,28.5,00.0,38.3,31.3,16.6,0008.52,0005.37
2021-08-15 04:33:00,,0830.6,5.00,0.00,29.4,28.6,00.0,38.3,31.3,16.8,0008.47,0005.37
2021-08-15 04:34:00,,0830.6,4.99,0.00,29.5,28.7,00.0,38.3,31.4,16.5,0008.49,0005.39
2021-08-15 04:35:00,,0830.6,5.00,0.00,29.5,28.2,00.0,38.4,31.2,16.5,0008.71,0005.41
2021-08-15 04:36:00,,0830.6,4.99,0.00,29.4,26.2,00.0,38.3,30.6,16.5,0009.13,0005.41
2021-08-15 04:37:00,,0830.6,5.00,0.00,29.2,25.5,00.0,38.3,30.4,16.7,0009.11,0005.42
2021-08-15 04:38:00,,0830.8,5.00,0.00,29.1,25.8,00.0,38.3,30.5,16.9,0009.03,0005.40
2021-08-15 04:39:00,,0830.8,4.99,0.00,29.1,26.3,00.0,38.3,30.6,17.1,0009.01,0005.39
2021-08-15 04:40:00,,0830.7,5.01,0.00,29.1,26.7,00.0,38.2,30.7,17.3,0009.02,0005.38
2021-08-15 04:41:00,,0830.8,5.01,0.00,29.1,27.1,00.0,38.2,30.8,17.5,0009.34,0005.44
2021-08-15 04:42:00,,0830.8,4.99,0.00,29.1,27.4,00.0,38.2,30.9,17.8,0009.39,0005.51
2021-08-15 04:43:00,,0830.8,5.01,0.00,29.1,27.7,00.0,38.2,31.0,18.0,0009.58,0005.53
2021-08-15 04:44:00,,0830.9,4.98,0.00,29.2,27.9,00.0,38.2,31.0,18.4,0010.91,0005.57
2021-08-15 04:45:00,,0830.9,5.00,0.00,29.2,28.1,00.0,38.2,31.1,18.7,0011.35,0005.61
2021-08-15 04:46:00,,0830.9,5.01,0.00,29.3,28.2,00.0,38.2,31.2,18.9,0011.84,0005.61
2021-08-15 04:47:00,,0830.9,5.00,0.00,29.3,28.4,00.0,38.3,31.2,19.2,0011.55,0005.64
2021-08-15 04:48:00,,0831.0,5.00,0.00,29.4,28.5,00.0,38.3,31.3,19.6,0011.81,0005.69
2021-08-15 04:49:00,,0831.0,5.00,0.00,29.4,28.6,00.0,38.3,31.3,20.0,0012.21,0005.74
2021-08-15 04:50:00,,0831.0,5.00,0.00,29.5,28.7,00.0,38.3,31.4,20.7,0012.53,0005.82
2021-08-15 04:51:00,,0831.0,5.00,0.00,29.5,28.7,00.0,38.4,31.4,21.0,0012.81,0005.97
2021-08-15 04:52:00,,0831.1,5.00,0.00,29.5,28.2,00.0,38.4,31.3,21.4,0012.90,0006.12
2021-08-15 04:53:00,,0831.1,4.99,0.00,29.4,26.3,00.0,38.4,30.7,21.7,0013.58,0006.28
2021-08-15 04:54:00,,0831.2,4.99,0.00,29.2,25.4,00.0,38.4,30.5,22.5,0013.88,0006.50
2021-08-15 04:55:00,,0831.1,5.01,0.00,29.1,25.7,00.0,38.3,30.5,22.6,0013.74,0006.75
2021-08-15 04:56:00,,0831.1,5.00,0.00,29.1,26.2,00.0,38.3,30.6,22.9,0013.79,0006.98
2021-08-15 04:57:00,,0831.1,5.00,0.00,29.1,26.6,00.0,38.2,30.7,23.8,0014.07,0007.33
2021-08-15 04:58:00,,0831.2,5.00,0.00,29.1,27.0,00.0,38.2,30.8,24.2,0015.29,0007.71
2021-08-15 04:59:00,,0831.2,4.99,0.00,29.1,27.3,00.0,38.2,30.9,24.7,0017.48,0008.16
